STARLINK-2523, 48306

Orbit data source: Space-Track

STARLINK-2523, 48306 is a payload satellite owned by SpaceX/Seattle (US) in LEO that was launched on Thu, 29 Apr 2021 UTC via an FALCON 9 launch vehicle from the Air Force Eastern Test Range (AFETR). Payload-class satellites include a variety of spacecraft equipped with specific instruments for various scientific and technological missions. These include communications satellites like Starlink; space stations such as the ISS; scientific satellites like the Hubble; Earth observation satellites from companies like Planet Labs, Umbra, and HawkEye 360; GPS; miniature CubeSats for education and research; and military/defense satellites.

Loading next visibility...
Identifier
48306, 2021-036AG
Orbit
LEO
Country
Flag of USUS
Related business
Manufacturer
SpaceX/Seattle
Mission
Operational Commercial Communications
Bus & Motor
STARLINK, Unknown motor
Mass
260 kg wet, ~248 kg dry
Launch date (UTC)
2021-04-29 (5 years ago)
Launch vehicle
FALCON 9
Launch site
Air Force Eastern Test Range (AFETR)
Object type
Payload
Rocket body
Debris
Shape & HBR
Box + 1 Pan, 10.1 m
Radar Cross Section
13.562 m², Large (>1 m²)

Expand to show TLE details & history
Last TLE update: 18 hours ago

TLE from 18 hours ago
0 STARLINK-2523
1 48306U 21036AG  26036.92800237  .00002514  00000-0  18760-3 0  9998
2 48306  53.0557 234.1980 0001573 107.0782 253.0380 15.06408217263383
Epoch: 2026-02-05T22:16Z
TLE epoch observation values (Epoch: 2026-02-05T22:16:19.404Z)
Latitude
0.00001°
Longitude
124.04396°
Altitude
548.384 km
Speed
7.589 km/s
True Right ascension
15h 36m 47s
True Declination
0° 00' 00"
Sunlit
Object was in daylight at epoch
Visualization orbit readout
Latitude
Unknown
Longitude
Unknown
Altitude
Unknown
Speed
Unknown
Apparent Right ascension
Unknown
Apparent Declination
Unknown
Sunlit
N/A
Visualization observer readout
Local Sidereal Time
18:01:49
Azimuth
Unknown
Elevation
Unknown
Doppler factor
Unknown
Orbital elements
Apogee altitude
548.546 km
Perigee altitude
546.368 km
Semi-major axis
6,925.594 km
Eccentricity
0.00016
Inclination
53.0557°
RAAN
234.198°
Arg. of periapsis
107.0782°
True anomaly
253.02076°
Mean anomaly
253.038°
Eccentric anomaly
253.02938°
Mean motion
3.7658 °/min
Orbital period
95.6 mins
BSTAR
0.0001876
Loading maneuver chart data...
Computing Atmospheric mass density...
Loading historical data...
Loading historical data...
Loading historical data...
Loading historical data...
Loading historical data...
Loading historical data...
Loading historical data...

Documentation

Showing up to 5 results
|